Погода в Корнилово

Россия / Новосибирская область     55°31′03″N   84°35′30″E
темп.,
°C
ветер,
м/с
пор.,
м/с
влажн.,
%
обл.,
%
осадки,
мм/ч
давл.,
гПа
погр.,
м
7 марта, вс
вс701:00−3юз101888100 0.2 1010893
04:00−4зюз81680100 1.2 10101017
07:00−9зюз7148862 1.2 1013423
10:00−10зюз6129059 0.0 1014396
13:00−8зюз6108443 0.0 1017579
16:00−7зюз6108583 0.0 1019779
19:00−9юз4109082 0.0 1021212
22:00−13ююз458651 0.0 102281
8 марта, пн
пн801:00−13ю448731 0.0 102259
04:00−12ююв578297 0.0 1020126
07:00−9ююв6139298 0.0 1017278
10:00−6ю81591100 0.0 1014496
13:00−1ю81484100 0.0 1011660
16:000ююз91581100 0.0 1007741
19:00−2ююз91781100 0.0 1006789
22:00−3юз101794100 0.3 1006956
9 марта, вт
вт901:00−3з91493100 0.7 1010853
04:00−10зюз61194100 0.1 1016393
07:00−13юз61294100 0.1 1021327
10:00−13юз7139098 0.0 1023481
13:00−9юз7137979 0.0 1024658
16:00−7юз8138061 0.0 1023864
19:00−9юз6138461 0.0 1023544
22:00−10ююз6148796 0.0 1023368
10 марта, ср
ср1001:00−12ююз5129197 0.0 1023272
04:00−14ююз479364 0.0 1022101
07:00−15ю489381 0.0 1021110
10:00−10ю599486 0.0 1018270
13:00−2ююз6109393 0.1 1015710
16:000ююз61088100 0.1 1012908
19:000ююз51189100 0.1 1008660
22:00−2ююв71486100 0.0 1005361
11 марта, чт
чт1101:00+1ю91974100 0.0 999743
04:00+1юз111897100 0.7 996999
07:00−1зюз131992100 1.6 10001089
10:00−8зюз11188799 0.1 1007790
13:00−6юз101588100 0.1 1010908
16:00−5юз111781100 0.1 10121276
19:00−7юз91683100 0.1 10141062
22:00−9юз91787100 0.0 1017931